Simultaneous Nadir Overpasses (SNOs) Predictions

Prediction of SNOs between METOP-C and LANDSAT-8 Satellite Orbit:

Table of predicted SNOs for the next 14.0 days since TLE Epoch: 5/1/2021
Index Date (METOP-C) Time (METOP-C) Lat,Lon (METOP-C) SZA (METOP-C ) Date (LANDSAT-8) Time (LANDSAT-8) Lat,Lon (LANDSAT-8) SZA (LANDSAT-8 ) Distance(km) Time Diff (sec)
1 05/02/2021 04:19:16 81.08, 153.76 67.72 05/02/2021 04:19:24 81.08, 153.83 67.73 1.15 8
2 05/02/2021 05:09:53 -81.12, -37.75 112.15 05/02/2021 05:08:49 -81.12, -37.88 112.19 2.21 64
3 05/04/2021 23:02:58 -81.06, 52.38 113.15 05/04/2021 23:04:12 -81.06, 52.31 113.12 1.21 74
4 05/04/2021 23:53:38 81.08,-139.80 66.91 05/04/2021 23:53:37 81.09,-139.64 66.93 2.83 1
5 05/05/2021 00:44:16 -81.11, 28.37 112.99 05/05/2021 00:43:03 -81.11, 28.32 113.03 1.00 73
6 05/07/2021 18:37:20 -81.06, 118.85 113.91 05/07/2021 18:38:25 -81.06, 118.83 113.89 0.40 65
7 05/07/2021 19:27:59 81.10, -73.01 66.19 05/07/2021 19:27:50 81.09, -73.15 66.17 2.42 9
8 05/10/2021 14:11:41 -81.07,-174.69 114.65 05/10/2021 14:12:37 -81.07,-174.69 114.62 0.05 56
9 05/10/2021 15:02:20 81.10, -6.62 65.45 05/10/2021 15:02:02 81.09, -6.69 65.43 1.40 18
10 05/13/2021 09:46:03 -81.07,-108.25 115.34 05/13/2021 09:46:50 -81.07,-108.26 115.33 0.21 47



Historial Predications of SNOs between METOP-C and LANDSAT-8
